N3OUC-2 Weather Reports


Display with metric or nautical units.
time (UTC)temp
F
wind
direction
speed
MPH
gust
MPH
rain 1hr
in
rain 24hr
in
rain mn
in
humidity
%
barometer
mb
20260506192005 61 218 10.0 20.0 0.00 0.13 0.13 93 1007.0
20260506191005 61 189 10.0 18.0 0.01 0.13 0.13 94 1007.2
20260506185005 60 169 5.0 15.0 0.01 0.13 0.13 94 1007.4
20260506184004 60 189 6.0 14.0 0.01 0.13 0.13 94 1007.6
20260506183005 60 204 7.0 20.0 0.01 0.13 0.13 94 1007.7
20260506182004 60 182 6.0 17.0 0.02 0.13 0.13 94 1007.7
20260506181005 60 189 7.0 14.0 0.01 0.12 0.12 94 1007.6
20260506180005 60 196 8.0 18.0 0.01 0.12 0.12 94 1007.8
20260506175005 60 207 6.0 12.0 0.01 0.12 0.12 94 1007.8
20260506174004 60 200 6.0 15.0 0.01 0.12 0.12 94 1007.8
20260506173005 60 181 4.0 15.0 0.01 0.12 0.12 94 1007.5
20260506172004 60 176 7.0 20.0 0.00 0.10 0.10 94 1007.6
20260506171004 60 173 10.0 21.0 0.01 0.10 0.10 94 1007.8
20260506165005 60 171 9.0 20.0 0.02 0.10 0.10 94 1008.0
20260506164004 60 185 6.0 15.0 0.03 0.10 0.10 94 1008.0
20260506162005 60 171 10.0 20.0 0.09 0.10 0.10 94 1007.5
20260506160004 60 184 7.0 20.0 0.08 0.09 0.09 94 1008.1
20260506155004 60 164 7.0 12.0 0.07 0.08 0.08 94 1008.5
20260506154005 60 171 8.0 20.0 0.06 0.07 0.07 94 1008.8
20260506153005 60 170 9.0 23.0 0.04 0.05 0.05 93 1008.9
20260506152005 60 175 10.0 22.0 0.00 0.01 0.01 92 1009.1
20260506151004 61 153 6.0 16.0 0.00 0.01 0.01 92 1009.1
20260506150005 61 171 7.0 21.0 0.00 0.01 0.01 92 1008.9
20260506140005 62 188 5.0 12.0 0.01 0.01 0.01 87 1008.9
20260506134009 62 181 6.0 14.0 0.01 0.01 0.01 87 1008.8
20260506132005 63 186 3.0 14.0 0.00 0.00 0.00 84 1009.2
20260506131004 63 180 7.0 15.0 0.00 0.00 0.00 83 1009.1
20260506130005 63 185 7.0 16.0 0.00 0.00 0.00 83 1009.2
20260506124004 64 190 6.0 15.0 0.00 0.00 0.00 79 1009.2
20260506123004 64 192 9.0 16.0 0.00 0.00 0.00 77 1009.0
20260506122004 64 194 6.0 20.0 0.00 0.00 0.00 78 1008.8
20260506120004 64 174 7.0 24.0 0.00 0.00 0.00 77 1008.7
20260506115005 64 166 9.0 18.0 0.00 0.00 0.00 77 1008.7
20260506114005 64 171 9.0 17.0 0.00 0.00 0.00 77 1008.5
20260506113005 64 186 12.0 20.0 0.00 0.00 0.00 77 1008.5
20260506112004 64 175 9.0 21.0 0.00 0.00 0.00 76 1008.5
20260506111005 64 172 10.0 22.0 0.00 0.00 0.00 76 1008.5
20260506105004 64 156 12.0 20.0 0.00 0.00 0.00 76 1008.1
20260506103004 64 171 10.0 20.0 0.00 0.00 0.00 76 1008.0
20260506102004 64 169 9.0 21.0 0.00 0.00 0.00 76 1008.0
20260506100004 64 173 8.0 16.0 0.00 0.00 0.00 76 1008.1
20260506095004 64 175 8.0 20.0 0.00 0.00 0.00 76 1008.2
20260506093004 64 175 10.0 25.0 0.00 0.00 0.00 75 1008.0
20260506091004 64 172 10.0 18.0 0.00 0.00 0.00 74 1008.0
20260506090004 65 169 8.0 18.0 0.00 0.01 0.00 74 1008.1
20260506085004 65 179 6.0 17.0 0.00 0.01 0.00 73 1008.2
20260506084004 65 169 8.0 20.0 0.00 0.01 0.00 73 1008.3
20260506083004 65 171 9.0 22.0 0.00 0.01 0.00 72 1008.2
20260506082004 65 154 7.0 26.0 0.00 0.01 0.00 72 1008.2
20260506081005 65 158 8.0 20.0 0.00 0.01 0.00 71 1008.3
20260506073003 64 160 7.0 18.0 0.00 0.01 0.00 69 1008.4
20260506072004 64 158 8.0 17.0 0.00 0.01 0.00 68 1008.5
20260506071004 65 165 9.0 18.0 0.00 0.01 0.00 68 1008.6
20260506062005 65 167 9.0 20.0 0.00 0.01 0.00 65 1009.1
20260506061005 65 171 7.0 14.0 0.00 0.01 0.00 65 1009.2
20260506051005 65 179 7.0 14.0 0.00 0.01 0.00 63 1009.7
20260506045005 66 173 7.0 14.0 0.00 0.01 0.00 62 1009.7
20260506044005 66 171 7.0 16.0 0.00 0.01 0.00 62 1009.7
20260506043005 66 173 8.0 14.0 0.00 0.01 0.00 61 1009.7
20260506042006 66 180 8.0 16.0 0.00 0.01 0.00 61 1009.7
20260506041006 66 161 8.0 15.0 0.00 0.01 0.00 60 1009.6
20260506040005 66 172 7.0 17.0 0.00 0.01 0.00 60 1009.6
20260506035005 67 176 7.0 15.0 0.00 0.01 0.01 59 1009.6
20260506034005 67 174 7.0 14.0 0.00 0.01 0.01 58 1009.6
20260506032005 68 185 8.0 17.0 0.00 0.01 0.01 56 1009.4
20260506031006 68 172 8.0 14.0 0.00 0.01 0.01 55 1009.5
20260506030006 69 180 7.0 16.0 0.00 0.01 0.01 55 1009.5
20260506025005 69 155 6.0 16.0 0.00 0.01 0.01 54 1009.4
20260506024005 69 180 9.0 16.0 0.00 0.01 0.01 53 1009.4
20260506023006 70 158 7.0 18.0 0.00 0.01 0.01 53 1009.5
20260506022005 70 182 8.0 18.0 0.00 0.01 0.01 51 1009.6
20260506020005 70 178 11.0 15.0 0.00 0.01 0.01 50 1009.5
20260506015006 71 177 7.0 17.0 0.00 0.01 0.01 49 1009.4
20260506014005 71 169 6.0 18.0 0.00 0.01 0.01 48 1009.4
20260506011005 72 179 6.0 14.0 0.00 0.01 0.01 46 1009.0
20260506010005 73 165 8.0 21.0 0.00 0.01 0.01 45 1008.9
20260506005006 73 171 7.0 16.0 0.00 0.01 0.01 45 1008.8
20260506004005 73 172 7.0 15.0 0.00 0.01 0.01 45 1008.8
20260506003005 73 180 8.0 23.0 0.00 0.01 0.01 45 1008.6
20260506002005 73 186 10.0 20.0 0.00 0.01 0.01 44 1008.5
20260506001005 74 174 7.0 20.0 0.00 0.01 0.01 44 1008.4
20260506000005 74 173 7.0 17.0 0.00 0.01 0.01 45 1008.3
20260505235005 74 164 9.0 20.0 0.00 0.01 0.01 44 1008.3
20260505234005 75 165 9.0 16.0 0.00 0.01 0.01 43 1008.3
20260505233005 75 168 7.0 18.0 0.00 0.01 0.01 42 1008.2
20260505232005 76 182 10.0 21.0 0.00 0.01 0.01 41 1008.2
20260505231005 76 181 10.0 20.0 0.00 0.01 0.01 42 1008.1
20260505230005 76 207 9.0 14.0 0.00 0.01 0.01 41 1008.1
20260505225005 77 196 7.0 20.0 0.00 0.01 0.01 40 1008.1
20260505224005 77 184 12.0 24.0 0.00 0.01 0.01 39 1007.9
20260505223005 77 211 10.0 20.0 0.00 0.01 0.01 39 1007.9
20260505222004 78 208 10.0 22.0 0.00 0.01 0.01 39 1007.9
20260505221005 78 201 7.0 22.0 0.00 0.01 0.01 40 1007.9
20260505220004 78 191 15.0 30.0 0.00 0.01 0.01 39 1007.9
20260505215005 79 186 7.0 24.0 0.00 0.01 0.01 40 1007.8
20260505214004 79 187 6.0 21.0 0.00 0.01 0.01 38 1007.9
20260505213004 79 169 6.0 29.0 0.00 0.01 0.01 40 1007.7
20260505211005 79 175 5.0 20.0 0.00 0.01 0.01 41 1007.6
20260505210004 79 190 11.0 21.0 0.00 0.01 0.01 39 1007.7
20260505205005 79 185 12.0 22.0 0.00 0.01 0.01 39 1007.6
20260505204004 79 177 10.0 25.0 0.00 0.01 0.01 41 1007.7
20260505203005 79 184 13.0 23.0 0.00 0.01 0.01 37 1007.8
20260505202005 80 215 9.0 22.0 0.00 0.01 0.01 39 1007.7
20260505201005 80 225 9.0 24.0 0.00 0.01 0.01 38 1007.9
20260505195004 80 226 9.0 26.0 0.00 0.01 0.01 38 1007.8